FW3173 Weather Reports


Display with metric or nautical units.
time (UTC)temp
F
wind
direction
speed
MPH
gust
MPH
rain 1hr
in
rain 24hr
in
rain mn
in
humidity
%
barometer
mb
20260504174514 47 275 15.0 31.0 0.00 0.70 0.32 81 1001.0
20260504173009 45 200 14.0 26.0 0.00 0.70 0.32 83 1000.8
20260504171606 46 228 15.0 28.0 0.00 0.70 0.32 87 1000.6
20260504081530 37 270 22.0 36.0 0.02 0.50 0.13 99 983.0
20260504044549 39 275 5.0 13.0 0.03 0.43 0.05 98 976.7
20260504043047 39 285 5.0 10.0 0.05 0.43 0.05 97 976.6
20260504041545 39 295 3.0 6.0 0.04 0.42 0.04 97 976.5
20260504040042 39 350 2.0 8.0 0.02 0.40 0.02 97 976.5
20260504034542 39 44 1.0 7.0 0.02 0.39 0.02 97 976.6
20260504033040 40 45 2.0 7.0 0.00 0.38 0.00 97 976.7
20260504031537 40 323 1.0 15.0 0.01 0.38 0.00 96 976.8
20260504030040 40 52 4.0 11.0 0.01 0.38 0.00 97 977.2
20260504024531 40 85 5.0 15.0 0.01 0.38 0.38 96 977.5
20260504023031 41 107 6.0 19.0 0.01 0.38 0.38 97 978.0
20260504021528 41 141 7.0 12.0 0.00 0.37 0.37 97 978.8
20260504020025 41 112 5.0 16.0 0.00 0.37 0.37 97 979.2
20260504014522 41 59 5.0 17.0 0.01 0.37 0.37 97 979.4
20260504013019 41 85 7.0 17.0 0.01 0.37 0.37 97 980.0
20260504011518 41 130 6.0 20.0 0.01 0.37 0.37 97 980.5
20260504010013 41 73 7.0 21.0 0.01 0.37 0.37 97 980.9
20260504004519 41 42 7.0 21.0 0.00 0.36 0.36 97 982.1
20260504003009 41 22 9.0 19.0 0.01 0.36 0.36 97 982.3
20260504001506 41 104 6.0 13.0 0.01 0.36 0.36 97 983.0
20260504000004 41 29 5.0 14.0 0.02 0.36 0.36 97 984.5
20260503234504 40 44 7.0 17.0 0.06 0.36 0.36 97 984.3
20260503233059 40 63 9.0 31.0 0.06 0.35 0.35 97 985.0
20260503231555 39 358 10.0 31.0 0.06 0.35 0.35 96 985.8
20260503230058 39 77 10.0 27.0 0.06 0.35 0.35 96 986.5
20260503224549 39 26 7.0 23.0 0.03 0.31 0.31 96 988.2
20260503223046 39 49 9.0 17.0 0.04 0.30 0.30 96 989.2
20260503221541 39 94 6.0 21.0 0.07 0.28 0.28 96 990.4
20260503220047 40 348 7.0 19.0 0.11 0.28 0.28 96 991.5
20260503214537 40 49 6.0 17.0 0.12 0.28 0.28 96 992.2
20260503213032 41 84 4.0 11.0 0.11 0.26 0.26 95 993.9
20260503211528 42 83 5.0 11.0 0.09 0.22 0.22 95 994.7
20260503210027 42 113 6.0 19.0 0.06 0.17 0.17 95 995.2
20260503204526 42 147 4.0 8.0 0.06 0.16 0.16 95 995.0
20260503203030 43 45 4.0 12.0 0.07 0.15 0.15 95 995.3
20260503201520 43 85 4.0 10.0 0.07 0.13 0.13 94 996.8
20260503200018 43 30 3.0 9.0 0.06 0.11 0.11 94 996.9
20260503194515 42 26 3.0 9.0 0.06 0.10 0.10 94 997.9
20260503193013 43 28 4.0 10.0 0.02 0.07 0.07 93 999.3
20260503191518 43 40 5.0 19.0 0.01 0.06 0.06 92 998.7
20260503190008 43 100 7.0 15.0 0.06 0.06 0.06 92 999.5
20260503184505 43 69 5.0 16.0 0.05 0.05 0.05 91 1000.5
20260503183001 43 33 5.0 15.0 0.05 0.05 0.05 90 1001.6
20260503181609 44 41 5.0 16.0 0.05 0.05 0.05 85 1002.0
20260503180055 46 45 3.0 12.0 0.00 0.00 0.00 78 1004.3